sat.trackr.live / text

‹ back to catalog

HULIANWANG DIGUI-40

NORAD 65043 · 2025-162A

PAYLOAD ACTIVE UNKNOWN

§ Identity

Operator
Country
PRC
Launch date
2025-07-30
Launch site
WSC
Launch vehicle
Mass (kg)
RCS (m²)

External: N2YO · Heavens-Above · Gunter

§ Orbital elements

Epoch: 2026-09-21T13:06:25.362432Z

Period
108.33 min
Inclination
49.9991°
Eccentricity
0.0000760
Mean motion
13.29327879 rev/d
Perigee alt
1,148.7 km
Apogee alt
1,149.9 km
Semi-major
7,527.4 km
B*
1.2936e-4
RAAN
280.3152°
Arg perigee
289.3589°
Mean anomaly
70.7201°
Rev number
5,616

§ Raw data

HULIANWANG DIGUI-401 65043U 25162A   26264.54612688 -.00000064  00000+0  12936-3 0  99982 65043  49.9991 280.3152 0000760 289.3589  70.7201 13.29327879 56165

JSON: /api/v1/satellites/65043 · /tle

For live sub-satellite position, see the globe view (requires WebGL).

§ Visibility from observer

Set your observer location to see the next 7 days of passes ≥ 10°. The values pass through the URL so the page stays shareable.

No JS? Fill the form by hand. The geolocation button needs JavaScript.